Date String (YYYY-MM-DD hh:mm:ss) UTC,Instrument flags,absolute air pressure of the measurement (hPa),sample flow rate (lpm),inlet stack bypass flow (lpm),air temperature of the measurement (°C),ambient temperature measured by the external sensor (°C),aerosol sample conditioner tube jacket temperature (°C),OPC LED temperature (°C),internal box temperature (°C),relative humidity of the measurement (%),span deviation,mass concentration of particles derived from Lorenz-Mie calculation of OPC scattering (μg/m³),mass concentration of particles derived from Lorenz-Mie calculation of OPC scattering (μg/m³),mass concentration of particles derived from Lorenz-Mie calculation of OPC scattering (μg/m³)
DateTimeUTC,F1_M11,P_M11,Q1_M11,Q2_M11,T1_M11,T2_M11,T3_M11,T4_M11,T5_M11,U1_M11,ZSPAN_M11,X0_M11,X2_M11,X1_M11
2023-12-16 04:00:00,SystemResetWarning,0836.3,5.00,000.00,021.4,020.4,000.0,029.8,022.8,9.3,0000.0,0002.43,0001.50,0001.24
2023-12-16 04:01:00,SystemResetWarning,0836.2,5.00,000.00,021.4,020.4,000.0,029.8,022.8,9.3,0000.0,0002.53,0001.50,0001.21
2023-12-16 04:02:00,SystemResetWarning,0836.3,5.00,000.00,021.4,020.4,000.0,029.8,022.8,9.1,0000.0,0002.80,0001.43,0001.15
2023-12-16 04:03:00,SystemResetWarning,0836.2,5.00,000.00,021.4,020.4,000.0,029.8,022.8,9.1,0000.0,0003.38,0001.38,0001.12
2023-12-16 04:04:00,SystemResetWarning,0836.3,5.00,000.00,021.4,020.4,000.0,029.8,022.8,9.1,0000.0,0004.46,0001.32,0001.09
2023-12-16 04:05:00,SystemResetWarning,0836.2,4.99,000.00,021.4,020.4,000.0,029.8,022.8,9.1,0000.0,0004.44,0001.30,0001.07
2023-12-16 04:06:00,SystemResetWarning,0836.3,5.00,000.00,021.4,020.4,000.0,029.8,022.7,9.1,0000.0,0004.43,0001.28,0001.05
2023-12-16 04:07:00,SystemResetWarning,0836.3,5.00,000.00,021.4,020.4,000.0,029.8,022.7,9.1,0000.0,0004.40,0001.25,0001.03
2023-12-16 04:08:00,SystemResetWarning,0836.4,4.99,000.00,021.4,020.4,000.0,029.8,022.8,9.2,0000.0,0004.09,0001.20,0001.00
2023-12-16 04:09:00,SystemResetWarning,0836.2,5.00,000.00,021.4,020.4,000.0,029.8,022.8,9.2,0000.0,0003.95,0001.18,0000.99
2023-12-16 04:10:00,SystemResetWarning,0836.2,5.00,000.00,021.4,020.4,000.0,029.8,022.8,9.2,0000.0,0003.90,0001.14,0000.98
2023-12-16 04:11:00,SystemResetWarning,0836.3,5.00,000.00,021.4,020.4,000.0,029.8,022.7,9.3,0000.0,0003.90,0001.13,0000.98
2023-12-16 04:12:00,SystemResetWarning,0836.3,5.00,000.00,021.4,020.4,000.0,029.7,022.7,9.2,0000.0,0003.86,0001.11,0000.96
2023-12-16 04:13:00,SystemResetWarning,0836.3,5.00,000.00,021.4,020.4,000.0,029.7,022.7,9.2,0000.0,0003.71,0001.18,0000.97
2023-12-16 04:14:00,SystemResetWarning,0836.2,5.00,000.00,021.4,020.3,000.0,029.7,022.7,9.2,0000.0,0003.16,0001.24,0000.97
2023-12-16 04:15:00,SystemResetWarning,0836.3,5.00,000.00,021.4,020.3,000.0,029.7,022.7,9.2,0000.0,0001.84,0001.24,0000.96
2023-12-16 04:16:00,SystemResetWarning,0836.3,5.00,000.00,021.4,020.3,000.0,029.7,022.7,9.1,0000.0,0001.87,0001.25,0000.97
2023-12-16 04:17:00,SystemResetWarning,0836.3,5.00,000.00,021.4,020.3,000.0,029.7,022.7,9.1,0000.0,0002.07,0001.24,0000.97
2023-12-16 04:18:00,SystemResetWarning,0836.3,5.00,000.00,021.3,020.3,000.0,029.7,022.7,9.1,0000.0,0002.08,0001.25,0000.97
2023-12-16 04:19:00,SystemResetWarning,0836.3,5.00,000.00,021.3,020.3,000.0,029.7,022.6,9.2,0000.0,0002.17,0001.27,0000.97
2023-12-16 04:20:00,SystemResetWarning,0836.3,5.00,000.00,021.3,020.3,000.0,029.7,022.6,9.2,0000.0,0002.23,0001.30,0000.98
2023-12-16 04:21:00,SystemResetWarning,0836.3,5.00,000.00,021.3,020.3,000.0,029.7,022.6,9.2,0000.0,0002.25,0001.30,0000.98
2023-12-16 04:22:00,SystemResetWarning,0836.4,5.00,000.00,021.3,020.2,000.0,029.7,022.6,9.2,0000.0,0002.27,0001.31,0000.99
2023-12-16 04:23:00,SystemResetWarning,0836.2,5.00,000.00,021.3,020.2,000.0,029.7,022.6,9.2,0000.0,0002.22,0001.32,0001.00
2023-12-16 04:24:00,SystemResetWarning,0836.3,4.99,000.00,021.3,020.2,000.0,029.7,022.5,9.3,0000.0,0002.07,0001.28,0001.01
2023-12-16 04:25:00,SystemResetWarning,0836.3,4.99,000.00,021.2,020.2,000.0,029.7,022.6,9.3,0000.0,0002.02,0001.25,0001.01
2023-12-16 04:26:00,SystemResetWarning,0836.3,5.00,000.00,021.2,020.2,000.0,029.7,022.6,9.3,0000.0,0002.00,0001.24,0001.02
2023-12-16 04:27:00,SystemResetWarning,0836.3,5.00,000.00,021.2,020.1,000.0,029.6,022.5,9.3,0000.0,0001.97,0001.24,0001.03
2023-12-16 04:28:00,SystemResetWarning,0836.3,5.00,000.00,021.2,020.1,000.0,029.6,022.5,9.4,0000.0,0001.75,0001.25,0001.05
2023-12-16 04:29:00,SystemResetWarning,0836.3,5.00,000.00,021.2,020.1,000.0,029.6,022.5,9.5,0000.0,0001.82,0001.28,0001.06
2023-12-16 04:30:00,SystemResetWarning,0836.3,5.00,000.00,021.2,020.1,000.0,029.6,022.5,9.5,0000.0,0001.80,0001.29,0001.06
2023-12-16 04:31:00,SystemResetWarning,0836.3,5.00,000.00,021.2,020.0,000.0,029.6,022.5,9.6,0000.0,0002.00,0001.28,0001.07
2023-12-16 04:32:00,SystemResetWarning,0836.3,5.00,000.00,021.2,020.0,000.0,029.6,022.5,9.5,0000.0,0002.13,0001.28,0001.08
2023-12-16 04:33:00,SystemResetWarning,0836.3,5.00,000.00,021.1,020.0,000.0,029.6,022.4,9.5,0000.0,0002.20,0001.29,0001.08
2023-12-16 04:34:00,SystemResetWarning,0836.3,5.01,000.00,021.1,020.0,000.0,029.6,022.4,9.6,0000.0,0002.24,0001.28,0001.07
2023-12-16 04:35:00,SystemResetWarning,0836.2,5.01,000.00,021.1,020.0,000.0,029.6,022.4,9.6,0000.0,0002.20,0001.26,0001.07
2023-12-16 04:36:00,SystemResetWarning,0836.3,5.01,000.00,021.1,020.0,000.0,029.5,022.4,9.6,0000.0,0002.09,0001.22,0001.06
2023-12-16 04:37:00,SystemResetWarning,0836.3,5.01,000.00,021.1,020.0,000.0,029.5,022.4,9.5,0000.0,0002.13,0001.21,0001.05
2023-12-16 04:38:00,SystemResetWarning,0836.4,4.99,000.00,021.1,020.0,000.0,029.5,022.3,9.5,0000.0,0002.58,0001.22,0001.03
2023-12-16 04:39:00,SystemResetWarning,0836.4,4.99,000.00,021.1,020.0,000.0,029.5,022.3,9.5,0000.0,0002.72,0001.26,0001.02
2023-12-16 04:40:00,SystemResetWarning,0836.4,5.00,000.00,021.0,020.0,000.0,029.5,022.3,9.7,0000.0,0002.71,0001.24,0001.01
2023-12-16 04:41:00,SystemResetWarning,0836.4,5.00,000.00,021.0,020.0,000.0,029.5,022.3,9.6,0000.0,0002.63,0001.20,0001.01
2023-12-16 04:42:00,SystemResetWarning,0836.4,5.00,000.00,021.0,019.9,000.0,029.5,022.3,9.5,0000.0,0002.39,0001.18,0000.99
2023-12-16 04:43:00,SystemResetWarning,0836.3,5.00,000.00,021.0,019.9,000.0,029.5,022.3,9.8,0000.0,0002.23,0001.17,0000.98
2023-12-16 04:44:00,SystemResetWarning,0836.3,5.00,000.00,021.0,019.9,000.0,029.5,022.3,9.5,0000.0,0002.14,0001.15,0000.96
2023-12-16 04:45:00,SystemResetWarning,0836.3,5.00,000.00,021.0,020.0,000.0,029.4,022.3,9.5,0000.0,0002.04,0001.13,0000.95
2023-12-16 04:46:00,SystemResetWarning,0836.3,5.00,000.00,021.0,019.9,000.0,029.4,022.3,9.5,0000.0,0002.03,0001.13,0000.95
2023-12-16 04:47:00,SystemResetWarning,0836.3,5.00,000.00,021.0,019.9,000.0,029.4,022.3,9.6,0000.0,0002.10,0001.16,0000.96
2023-12-16 04:48:00,SystemResetWarning,0836.2,4.99,000.00,021.0,019.9,000.0,029.4,022.3,9.6,0000.0,0002.15,0001.19,0000.98
2023-12-16 04:49:00,SystemResetWarning,0836.3,4.99,000.00,021.0,019.9,000.0,029.4,022.3,9.6,0000.0,0001.79,0001.20,0001.00
2023-12-16 04:50:00,SystemResetWarning,0836.2,5.00,000.00,021.0,019.9,000.0,029.4,022.3,9.6,0000.0,0001.66,0001.17,0001.00
2023-12-16 04:51:00,SystemResetWarning,0836.2,5.01,000.00,021.0,019.9,000.0,029.4,022.2,9.7,0000.0,0001.82,0001.20,0001.02
2023-12-16 04:52:00,SystemResetWarning,0836.2,5.00,000.00,021.0,019.9,000.0,029.4,022.3,9.5,0000.0,0001.88,0001.22,0001.03
2023-12-16 04:53:00,SystemResetWarning,0836.2,5.00,000.00,021.0,019.9,000.0,029.4,022.2,9.4,0000.0,0002.01,0001.29,0001.05
2023-12-16 04:54:00,SystemResetWarning,0836.2,5.00,000.00,021.0,019.9,000.0,029.4,022.3,9.4,0000.0,0002.02,0001.31,0001.08
2023-12-16 04:55:00,SystemResetWarning,0836.1,5.00,000.00,020.9,019.9,000.0,029.4,022.3,9.6,0000.0,0002.06,0001.35,0001.10
2023-12-16 04:56:00,SystemResetWarning,0836.1,5.00,000.00,020.9,019.9,000.0,029.4,022.3,9.7,0000.0,0002.14,0001.37,0001.12
2023-12-16 04:57:00,SystemResetWarning,0836.1,5.00,000.00,020.9,019.9,000.0,029.3,022.2,9.7,0000.0,0002.30,0001.41,0001.12
2023-12-16 04:58:00,SystemResetWarning,0836.1,5.00,000.00,020.9,019.9,000.0,029.3,022.2,9.8,0000.0,0002.33,0001.42,0001.12
2023-12-16 04:59:00,SystemResetWarning,0836.1,5.00,000.00,020.9,019.9,000.0,029.3,022.3,9.8,0000.0,0002.32,0001.42,0001.13
